DW0332 Weather Reports


Display with metric or nautical units.
time (UTC)temp
F
wind
direction
speed
MPH
gust
MPH
rain 1hr
in
rain 24hr
in
rain mn
in
humidity
%
barometer
mb
20260507114541 48 331 0.0 4.0 0.00 0.22 0.03 89 1009.1
20260507113039 48 297 0.0 3.0 0.01 0.22 0.03 91 1009.0
20260507111537 47 323 0.0 5.0 0.01 0.22 0.03 91 1009.0
20260507110037 46 327 0.0 3.0 0.01 0.22 0.03 91 1009.1
20260507104538 46 323 1.0 3.0 0.01 0.22 0.03 91 1008.9
20260507103036 46 319 0.0 2.0 0.00 0.21 0.02 91 1009.7
20260507101533 46 332 1.0 3.0 0.00 0.21 0.02 91 1009.2
20260507100035 46 273 1.0 3.0 0.00 0.21 0.02 91 1009.1
20260507094531 46 323 1.0 5.0 0.00 0.21 0.02 91 1009.1
20260507093029 47 306 2.0 5.0 0.00 0.21 0.02 91 1008.7
20260507091528 47 339 1.0 8.0 0.00 0.21 0.02 91 1008.3
20260507090026 47 345 3.0 6.0 0.00 0.21 0.02 92 1008.4
20260507084523 48 15 1.0 8.0 0.00 0.21 0.02 92 1008.4
20260507083022 48 317 2.0 6.0 0.00 0.21 0.02 93 1008.8
20260507081520 48 349 1.0 5.0 0.00 0.21 0.02 93 1008.3
20260507080017 49 342 2.0 5.0 0.00 0.21 0.02 93 1007.9
20260507074515 49 327 1.0 3.0 0.00 0.21 0.02 93 1008.2
20260507073014 49 327 1.0 3.0 0.00 0.21 0.02 93 1008.2
20260507071531 49 344 2.0 5.0 0.00 0.21 0.02 93 1007.7
20260507070012 50 311 1.0 5.0 0.00 0.21 0.02 93 1007.6
20260507064507 50 308 1.0 3.0 0.00 0.21 0.02 93 1007.7
20260507063008 50 308 0.0 2.0 0.00 0.21 0.02 93 1007.6
20260507061506 50 308 0.0 2.0 0.01 0.21 0.02 93 1007.3
20260507060004 51 328 1.0 6.0 0.01 0.21 0.02 93 1007.6
20260507054503 51 36 3.0 8.0 0.01 0.21 0.02 93 1007.1
20260507053129 52 30 1.0 8.0 0.01 0.21 0.02 94 1007.0
20260507051605 52 34 6.0 10.0 0.01 0.20 0.01 95 1007.2
20260507050056 50 251 1.0 5.0 0.01 0.20 0.01 93 1007.0
20260507044557 51 240 2.0 3.0 0.01 0.20 0.01 93 1006.7
20260507043053 52 257 1.0 3.0 0.01 0.20 0.01 94 1006.4
20260507041552 52 246 1.0 4.0 0.01 0.19 0.00 94 1006.3
20260507040047 51 221 3.0 8.0 0.01 0.19 0.00 94 1006.7
20260507034547 49 296 6.0 12.0 0.01 0.19 0.19 94 1006.6
20260507033050 48 304 4.0 14.0 0.01 0.19 0.19 93 1006.6
20260507031544 48 207 5.0 10.0 0.00 0.18 0.18 93 1006.2
20260507030042 48 222 7.0 13.0 0.00 0.18 0.18 93 1006.3
20260507024542 48 233 5.0 11.0 0.00 0.18 0.18 93 1006.5
20260507023039 49 244 6.0 12.0 0.00 0.18 0.18 93 1006.7
20260507021537 49 236 9.0 14.0 0.00 0.18 0.18 93 1006.8
20260507020040 48 234 6.0 12.0 0.00 0.18 0.18 93 1006.9
20260507014540 48 230 5.0 14.0 0.00 0.18 0.18 93 1007.1
20260507013032 49 240 7.0 15.0 0.00 0.18 0.18 93 1007.2
20260507011538 49 250 8.0 14.0 0.01 0.18 0.18 93 1007.3
20260507010030 49 251 7.0 16.0 0.01 0.18 0.18 93 1007.3
20260507004536 48 224 8.0 16.0 0.01 0.18 0.18 92 1007.3
20260507003026 49 195 6.0 16.0 0.01 0.18 0.18 93 1007.2
20260507001524 49 182 7.0 17.0 0.00 0.17 0.17 92 1007.3
20260507000020 49 214 6.0 12.0 0.00 0.17 0.17 92 1007.3
20260506234519 49 220 6.0 17.0 0.00 0.17 0.17 92 1007.3
20260506233018 49 180 5.0 13.0 0.00 0.17 0.17 92 1007.3
20260506231514 49 221 8.0 20.0 0.01 0.17 0.17 92 1007.5
20260506230011 49 205 8.0 17.0 0.01 0.17 0.17 92 1007.6
20260506224510 49 230 7.0 20.0 0.03 0.17 0.17 92 1007.7
20260506223007 50 246 6.0 14.0 0.05 0.17 0.17 92 1007.8
20260506221509 50 192 4.0 19.0 0.06 0.16 0.16 92 1007.8
20260506220003 50 164 6.0 18.0 0.08 0.16 0.16 92 1007.9
20260506214501 50 190 8.0 17.0 0.08 0.14 0.14 91 1008.2
20260506213059 50 227 7.0 15.0 0.08 0.12 0.12 91 1008.3
20260506211604 50 211 8.0 14.0 0.06 0.10 0.10 91 1008.4
20260506210056 50 213 6.0 18.0 0.05 0.08 0.08 90 1008.6
20260506204652 50 221 7.0 14.0 0.03 0.06 0.06 89 1008.7
20260506203052 51 184 5.0 10.0 0.03 0.04 0.04 89 1008.6
20260506201551 51 218 7.0 14.0 0.03 0.04 0.04 89 1008.6
20260506200057 51 217 6.0 13.0 0.03 0.03 0.03 90 1009.0
20260506194551 51 232 6.0 13.0 0.02 0.02 0.02 89 1009.3
20260506193053 51 242 7.0 13.0 0.01 0.01 0.01 89 1009.5
20260506191552 51 262 7.0 15.0 0.01 0.01 0.01 88 1009.2
20260506190046 52 292 5.0 17.0 0.00 0.00 0.00 86 1009.1
20260506184550 52 225 10.0 20.0 0.00 0.00 0.00 86 1008.6
20260506183050 52 213 6.0 16.0 0.00 0.00 0.00 86 1008.8
20260506181554 52 232 7.0 15.0 0.00 0.00 0.00 85 1009.1
20260506180100 52 230 8.0 14.0 0.00 0.00 0.00 85 1009.1
20260506174540 52 192 7.0 18.0 0.00 0.00 0.00 85 1009.2
20260506173041 51 222 7.0 16.0 0.00 0.00 0.00 86 1009.4
20260506171535 51 213 8.0 12.0 0.00 0.00 0.00 85 1009.6
20260506170034 51 218 4.0 10.0 0.00 0.00 0.00 85 1009.9
20260506164532 51 212 4.0 10.0 0.00 0.00 0.00 85 1010.2
20260506163032 51 213 5.0 11.0 0.00 0.00 0.00 85 1010.5
20260506161533 52 173 7.0 17.0 0.00 0.00 0.00 85 1010.8
20260506160029 52 205 9.0 15.0 0.00 0.00 0.00 85 1011.1
20260506154528 51 221 6.0 12.0 0.00 0.00 0.00 85 1011.2
20260506153027 52 232 7.0 16.0 0.00 0.00 0.00 85 1011.3
20260506151528 53 209 7.0 12.0 0.00 0.00 0.00 84 1011.2
20260506150027 53 231 10.0 17.0 0.00 0.00 0.00 83 1011.2
20260506144523 53 221 7.0 14.0 0.00 0.00 0.00 84 1010.9
20260506143026 52 224 5.0 14.0 0.00 0.00 0.00 85 1010.9
20260506141517 52 232 7.0 12.0 0.00 0.00 0.00 86 1011.2
20260506140017 51 210 7.0 15.0 0.00 0.00 0.00 86 1011.4
20260506134517 52 221 5.0 12.0 0.00 0.00 0.00 86 1011.4
20260506133018 52 216 6.0 14.0 0.00 0.00 0.00 86 1011.4
20260506131518 52 286 5.0 14.0 0.00 0.00 0.00 86 1011.3
20260506130016 52 242 6.0 13.0 0.00 0.00 0.00 87 1011.3
20260506124511 51 224 6.0 15.0 0.00 0.00 0.00 87 1011.4
20260506123014 51 215 7.0 12.0 0.00 0.00 0.00 87 1011.3
20260506121507 51 218 8.0 15.0 0.00 0.00 0.00 87 1011.5
20260506120018 50 290 5.0 10.0 0.00 0.00 0.00 88 1011.5